Weather in Krugloye

Belarus     54°14′48″N   29°47′47″E
temp.,
°C
wind,
m/s
gust,
m/s
humid.,
%
clouds,
%
prec.,
mm/h
press.,
hPa
HPBL,
m
23 april, fri
fri2300:00+7wsw3682100 0.0 1011400
03:00+5wsw3783100 0.0 1012289
06:00+4sw4886100 0.0 1012370
09:00+5sw577012 0.0 10131001
12:00+6wsw795795 0.2 10131714
15:00+6w785597 0.3 10141594
18:00+6wsw685882 0.0 10131479
21:00+3sw387295 0.1 1013182
24 april, sat
sat2400:00+2wsw358883 0.1 1012130
03:00+1wsw4896100 0.4 1012357
06:000nw71297100 1.3 1012770
09:000nw6988100 2.9 1013965
12:00+2wnw7974100 0.1 10141269
15:00+4wnw71064100 0.8 10141609
18:00+5w6964100 0.6 10141311
21:00+1wsw49838 0.6 1015174
25 april, sun
sun2500:000wsw49926 0.0 1014214
03:00−1wsw499125 0.0 1015216
06:00−2wsw49925 0.0 1014250
09:00+2w577025 0.0 1014862
12:00+3w6864100 0.1 10141201
15:00+5w6857100 0.6 10131640
18:00+5w6961100 0.6 10121479
21:00+1w5108218 0.7 1013297
26 april, mon
mon2600:00−1wsw410957 0.0 1014267
03:00−1w589297 0.0 1014474
06:00−2wsw489652 0.1 1013308
09:00+1w568392 0.3 1013722
12:00+3w566899 0.9 10131265
15:00+5w5751100 1.4 10121796
18:00+4w4659100 0.4 10111259
21:00+1wsw3786100 1.1 1011166
27 april, tue
tue2700:00−1wsw379573 0.0 1011159
03:00−2wsw379837 0.0 1011177
06:000w3797100 0.2 1010522
09:00+2w4578100 0.3 1011908
12:00+3wsw5570100 0.1 10121045
15:00+4wsw5771100 0.1 1012889
18:00+5w578095 0.1 1012845
21:00+3w3798100 0.3 1013540